Location: Paris
(48.6709°N, 2.3750°E)
Time: 10:18:27
(UTC+02:00)

Gurwin Techsat 1B - Pass Details

Date: 27 June 2022
Orbit: 812 x 813 km, 98.8° (Epoch: 07 August)

Event Time Altitude Azimuth Distance (km) Brightness Sun altitude
Rises 03:51:07 0° 20° (NNE) 3,347 13.8 -13.4°
Reaches altitude 10° 03:53:37 10° 29° (NNE) 2,411 12.6 -13.2°
Maximum altitude 03:58:36 39° 97° (E) 1,208 9.7 -12.8°
Drops below altitude 10° 04:03:32 10° 166° (SSE) 2,394 10.6 -12.4°
Enters shadow 04:04:06 - 168° (SSE) 2,602 10.8 -12.3°
